FW0960 Weather Reports


Display with metric or nautical units.
time (UTC)temp
F
wind
direction
speed
MPH
gust
MPH
rain 1hr
in
rain 24hr
in
rain mn
in
humidity
%
barometer
mb
20260502170452 55 215 1.0 4.0 0.00 0.00 0.00 74 1012.9
20260502163444 53 225 1.0 3.0 0.00 0.00 0.00 76 1013.5
20260502162943 53 199 1.0 3.0 0.00 0.00 0.00 78 1013.3
20260502162446 52 196 1.0 3.0 0.00 0.00 0.00 80 1013.5
20260502161943 52 194 1.0 4.0 0.00 0.00 0.00 81 1013.4
20260502160943 52 205 1.0 4.0 0.00 0.00 0.00 80 1013.5
20260502160441 51 217 1.0 4.0 0.00 0.00 0.00 82 1013.6
20260502151940 53 208 1.0 3.0 0.00 0.00 0.00 74 1013.7
20260502151436 53 190 1.0 3.0 0.00 0.00 0.00 74 1013.7
20260502150441 53 192 1.0 3.0 0.00 0.00 0.00 75 1013.7
20260502130434 53 205 1.0 9.0 0.00 0.00 0.00 80 1013.8
20260502122926 52 207 1.0 3.0 0.00 0.00 0.00 83 1013.7
20260502122434 52 184 1.0 2.0 0.00 0.00 0.00 85 1013.7
20260502121922 52 170 0.0 2.0 0.00 0.00 0.00 86 1013.6
20260502121421 52 104 0.0 0.0 0.00 0.00 0.00 86 1013.7
20260502120418 51 90 0.0 0.0 0.00 0.00 0.00 88 1013.9
20260502115918 51 90 0.0 0.0 0.00 0.00 0.00 88 1014.0
20260502115415 51 90 0.0 0.0 0.00 0.00 0.00 88 1014.0
20260502114920 51 90 0.0 0.0 0.00 0.00 0.00 89 1013.9
20260502113907 50 90 0.0 0.0 0.00 0.00 0.00 89 1013.7
20260502113411 50 79 0.0 0.0 0.00 0.00 0.00 89 1013.7
20260502112901 50 79 0.0 0.0 0.00 0.00 0.00 89 1013.8
20260502112409 50 79 0.0 0.0 0.00 0.00 0.00 89 1013.8
20260502111353 50 79 0.0 0.0 0.00 0.00 0.00 90 1013.6
20260502110851 50 79 0.0 0.0 0.00 0.00 0.00 90 1013.6
20260502105832 49 79 0.0 0.0 0.00 0.00 0.00 91 1013.4
20260502105330 49 79 0.0 0.0 0.00 0.00 0.00 91 1013.4
20260502104316 49 79 0.0 0.0 0.00 0.00 0.00 91 1013.3
20260502103813 49 79 0.0 0.0 0.00 0.00 0.00 90 1013.3
20260502103311 49 79 0.0 0.0 0.00 0.00 0.00 90 1013.4
20260502102811 49 79 0.0 0.0 0.00 0.00 0.00 90 1013.2
20260502101803 49 79 0.0 0.0 0.00 0.00 0.00 90 1013.1
20260502100802 49 79 0.0 0.0 0.00 0.00 0.00 90 1013.0
20260502100303 49 79 0.0 0.0 0.00 0.00 0.00 90 1013.1
20260502091307 49 79 0.0 0.0 0.00 0.00 0.00 88 1012.7
20260502090807 49 79 0.0 0.0 0.00 0.00 0.00 88 1012.8
20260502071209 51 79 0.0 0.0 0.00 0.00 0.00 84 1012.9
20260502070706 51 79 0.0 0.0 0.00 0.00 0.00 85 1013.0
20260502070202 51 79 0.0 0.0 0.00 0.00 0.00 84 1013.0
20260502065706 52 79 0.0 0.0 0.00 0.00 0.00 84 1012.8
20260502065205 52 79 0.0 0.0 0.00 0.00 0.00 84 1012.8
20260502064152 52 79 0.0 0.0 0.00 0.00 0.00 84 1013.0
20260502063647 52 79 0.0 0.0 0.00 0.00 0.00 85 1013.2
20260502063148 52 79 0.0 0.0 0.00 0.00 0.00 85 1013.2
20260502062648 52 79 0.0 0.0 0.00 0.00 0.00 85 1013.2
20260502062139 52 79 0.0 0.0 0.00 0.00 0.00 85 1013.3
20260502061639 52 79 0.0 0.0 0.00 0.00 0.00 85 1013.2
20260502060642 52 79 0.0 0.0 0.00 0.00 0.00 86 1013.4
20260502060138 52 79 0.0 0.0 0.00 0.00 0.00 86 1013.4
20260502055638 52 79 0.0 0.0 0.00 0.00 0.00 86 1013.5
20260502055134 52 79 0.0 0.0 0.00 0.00 0.00 86 1013.6
20260502054138 52 79 0.0 0.0 0.00 0.00 0.00 85 1013.8
20260502053639 52 79 0.0 0.0 0.00 0.00 0.00 85 1013.8
20260502053137 52 79 0.0 0.0 0.00 0.00 0.00 85 1013.8
20260502052639 52 79 0.0 0.0 0.00 0.00 0.00 85 1013.9
20260502052139 52 79 0.0 0.0 0.00 0.00 0.00 84 1014.0
20260502051130 52 79 0.0 0.0 0.00 0.00 0.00 83 1014.0
20260502050132 52 79 0.0 0.0 0.00 0.00 0.00 82 1014.1
20260502045630 52 79 0.0 0.0 0.00 0.00 0.00 82 1014.1
20260502045132 52 79 0.0 0.0 0.00 0.00 0.00 81 1014.1
20260502044632 52 79 0.0 0.0 0.00 0.00 0.00 82 1014.0
20260502044132 52 79 0.0 0.0 0.00 0.00 0.00 82 1014.1
20260502043628 52 79 0.0 0.0 0.00 0.00 0.00 82 1014.1
20260502043130 52 79 0.0 0.0 0.00 0.00 0.00 82 1014.1
20260502042632 52 79 0.0 0.0 0.00 0.00 0.00 82 1014.1
20260502042131 52 79 0.0 0.0 0.00 0.00 0.00 82 1014.0
20260502041628 52 79 0.0 0.0 0.00 0.00 0.00 83 1014.1
20260502041129 52 79 0.0 0.0 0.00 0.00 0.00 83 1013.9
20260502040632 52 79 0.0 0.0 0.00 0.00 0.00 83 1014.0
20260502040143 52 79 0.0 0.0 0.00 0.00 0.00 83 1014.0
20260502035132 52 79 0.0 0.0 0.00 0.00 0.00 83 1014.1
20260502034629 52 79 0.0 0.0 0.00 0.00 0.00 83 1013.9
20260502034140 52 79 0.0 0.0 0.00 0.00 0.00 83 1014.0
20260502033627 52 79 0.0 0.0 0.00 0.00 0.00 83 1013.8
20260502033123 52 79 0.0 0.0 0.00 0.00 0.00 83 1013.7
20260502032624 52 79 0.0 0.0 0.00 0.00 0.00 83 1013.8
20260502031624 52 79 0.0 0.0 0.00 0.00 0.00 84 1013.6
20260502031122 52 79 0.0 0.0 0.00 0.00 0.00 85 1013.8
20260502030616 52 79 0.0 0.0 0.00 0.00 0.00 85 1013.7
20260502030125 52 79 0.0 0.0 0.00 0.00 0.00 85 1013.8
20260502025152 52 79 0.0 0.0 0.00 0.00 0.00 85 1013.9
20260502024106 52 79 0.0 0.0 0.00 0.00 0.00 85 1014.1
20260502023606 52 79 0.0 0.0 0.00 0.00 0.00 85 1014.1
20260502023106 52 79 0.0 0.0 0.00 0.00 0.00 85 1014.3
20260502022603 52 79 0.0 0.0 0.00 0.00 0.00 85 1014.2
20260502021603 52 79 0.0 0.0 0.00 0.00 0.00 85 1014.4
20260502021104 53 79 0.0 0.0 0.00 0.00 0.00 84 1014.5
20260502020601 53 79 0.0 0.0 0.00 0.00 0.00 84 1014.5
20260502015602 53 79 0.0 0.0 0.00 0.00 0.00 84 1014.4
20260502015102 53 79 0.0 0.0 0.00 0.00 0.00 83 1014.3
20260502014603 53 79 0.0 0.0 0.00 0.00 0.00 83 1014.4
20260502014109 53 79 0.0 0.0 0.00 0.00 0.00 83 1014.4
20260502013102 54 79 0.0 0.0 0.00 0.00 0.00 81 1014.1
20260502012605 54 79 0.0 0.0 0.00 0.00 0.00 81 1014.0
20260502012106 54 79 0.0 0.0 0.00 0.00 0.00 80 1014.1
20260502011604 54 79 0.0 0.0 0.00 0.00 0.00 80 1014.0
20260502011103 54 79 0.0 0.0 0.00 0.00 0.00 80 1014.1
20260502005608 55 79 0.0 0.0 0.00 0.00 0.00 78 1014.1
20260502005102 55 79 0.0 0.0 0.00 0.00 0.00 77 1014.0
20260502004603 55 79 0.0 0.0 0.00 0.00 0.00 76 1014.0
20260502004105 55 79 0.0 0.0 0.00 0.00 0.00 76 1013.9
20260502003605 55 79 0.0 0.0 0.00 0.00 0.00 75 1013.8
20260502003105 56 79 0.0 0.0 0.00 0.00 0.00 75 1013.7
20260502002604 56 78 0.0 1.0 0.00 0.00 0.00 74 1013.7
20260502002101 56 78 0.0 1.0 0.00 0.00 0.00 74 1013.4
20260502001552 56 78 0.0 1.0 0.00 0.00 0.00 73 1013.3
20260502001049 57 86 0.0 1.0 0.00 0.00 0.00 73 1013.2
20260502000540 57 86 0.0 1.0 0.00 0.00 0.00 73 1013.2
20260502000044 57 86 0.0 1.0 0.00 0.00 0.00 72 1012.9
20260501235542 57 86 0.0 1.0 0.00 0.00 0.00 71 1013.1
20260501235042 58 86 0.0 1.0 0.00 0.00 0.00 71 1013.1
20260501234538 58 86 0.0 1.0 0.00 0.00 0.00 71 1013.0
20260501234038 58 86 0.0 1.0 0.00 0.00 0.00 70 1013.1
20260501232036 59 86 0.0 1.0 0.00 0.00 0.00 73 1012.9
20260501231532 59 86 0.0 2.0 0.00 0.00 0.00 72 1012.6
20260501231033 60 86 0.0 2.0 0.00 0.00 0.00 71 1012.7
20260501230531 60 87 0.0 2.0 0.00 0.00 0.00 68 1012.7
20260501230034 60 87 0.0 2.0 0.00 0.00 0.00 66 1012.8
20260501225533 60 90 0.0 2.0 0.00 0.00 0.00 67 1012.7
20260501225032 60 95 1.0 2.0 0.00 0.00 0.00 66 1012.7
20260501224533 60 344 1.0 2.0 0.00 0.00 0.00 67 1012.7
20260501224036 60 344 1.0 2.0 0.00 0.00 0.00 68 1012.7
20260501223539 60 344 0.0 2.0 0.00 0.00 0.00 69 1012.7
20260501223027 60 344 0.0 2.0 0.00 0.00 0.00 69 1012.7
20260501222534 60 344 1.0 2.0 0.00 0.00 0.00 67 1012.7
20260501222025 60 344 1.0 2.0 0.00 0.00 0.00 68 1012.9
20260501221527 60 344 0.0 2.0 0.00 0.00 0.00 69 1012.8
20260501221026 60 344 0.0 2.0 0.00 0.00 0.00 70 1012.8
20260501220523 60 344 1.0 2.0 0.00 0.00 0.00 69 1013.0
20260501220023 60 344 1.0 2.0 0.00 0.00 0.00 68 1013.1
20260501215525 60 342 0.0 2.0 0.00 0.00 0.00 68 1013.1
20260501214521 61 338 1.0 2.0 0.00 0.00 0.00 66 1013.1
20260501213517 61 355 1.0 3.0 0.00 0.00 0.00 67 1013.0
20260501213019 61 355 1.0 3.0 0.00 0.00 0.00 67 1013.0
20260501212516 61 355 1.0 3.0 0.00 0.00 0.00 66 1013.1
20260501212014 61 355 1.0 2.0 0.00 0.00 0.00 66 1013.1
20260501211513 61 355 1.0 2.0 0.00 0.00 0.00 65 1013.0
20260501211015 60 351 1.0 3.0 0.00 0.00 0.00 66 1013.1
20260501210519 60 351 1.0 3.0 0.00 0.00 0.00 68 1013.2
20260501210013 60 351 1.0 3.0 0.00 0.00 0.00 68 1013.2
20260501205513 60 348 1.0 3.0 0.00 0.00 0.00 70 1013.3
20260501205018 60 351 1.0 3.0 0.00 0.00 0.00 68 1013.5
20260501204012 60 350 1.0 2.0 0.00 0.00 0.00 68 1013.4
20260501203511 60 351 1.0 2.0 0.00 0.00 0.00 67 1013.4
20260501203013 60 350 1.0 2.0 0.00 0.00 0.00 66 1013.3
20260501202005 60 348 1.0 2.0 0.00 0.00 0.00 65 1013.4
20260501201507 60 346 1.0 2.0 0.00 0.00 0.00 63 1013.4
20260501200508 61 338 1.0 3.0 0.00 0.00 0.00 66 1013.4
20260501200020 61 337 1.0 3.0 0.00 0.00 0.00 65 1013.5
20260501195008 61 323 0.0 2.0 0.00 0.00 0.00 60 1013.6
20260501194507 61 315 1.0 2.0 0.00 0.00 0.00 64 1013.6
20260501194011 61 306 1.0 2.0 0.00 0.00 0.00 62 1013.8
20260501193511 62 296 1.0 2.0 0.00 0.00 0.00 63 1013.7
20260501192509 61 341 1.0 2.0 0.00 0.00 0.00 64 1014.0
20260501192004 61 338 1.0 2.0 0.00 0.00 0.00 64 1014.0
20260501191505 61 336 1.0 2.0 0.00 0.00 0.00 64 1014.0
20260501191008 60 334 1.0 2.0 0.00 0.00 0.00 64 1014.1
20260501190504 61 333 1.0 2.0 0.00 0.00 0.00 60 1014.2
20260501185505 61 344 1.0 3.0 0.00 0.00 0.00 62 1014.1
20260501185038 61 345 1.0 2.0 0.00 0.00 0.00 59 1014.1
20260501184027 60 343 1.0 2.0 0.00 0.00 0.00 62 1014.5
20260501183004 61 340 1.0 2.0 0.00 0.00 0.00 61 1014.4
20260501182506 61 337 1.0 2.0 0.00 0.00 0.00 56 1014.5
20260501182008 61 339 1.0 2.0 0.00 0.00 0.00 59 1014.4
20260501181503 61 336 1.0 2.0 0.00 0.00 0.00 59 1014.4
20260501181005 61 332 1.0 2.0 0.00 0.00 0.00 58 1014.5
20260501180510 62 340 1.0 2.0 0.00 0.00 0.00 58 1014.4
20260501180028 61 340 0.0 2.0 0.00 0.00 0.00 52 1014.4